Location: Capvern
(43.1036°N, 0.3160°E)
Time: 04:04:00
(UTC+00:00)

Cosmos 405 Rocket - Pass Details

Date: 16 October 2021
Orbit: 488 x 551 km, 81.3° (Epoch: 08 December)

Event Time Altitude Azimuth Distance (km) Brightness Sun altitude
Rises 18:34:13 0° 353° (N) 2,670 6.4 -15.4°
Reaches altitude 10° 18:36:22 10° 357° (N) 1,786 5.5 -15.8°
Maximum altitude 18:40:16 61° 78° (ENE) 614 2.7 -16.5°
Drops below altitude 10° 18:44:12 10° 160° (SSE) 1,804 5.2 -17.2°
Enters shadow 18:44:29 - 160° (SSE) 1,919 5.4 -17.2°
